GW6206 Weather Reports


time (UTC)temp
C
wind
direction
speed
KPH
gust
KPH
rain 1hr
cm
rain 24hr
cm
rain mn
cm
humidity
%
barometer
mb
20260505011017 16 90 6.4 12.9 0.03 0.03 0.03 46 1005.9
20260505010016 16 68 8.0 19.3 0.03 0.03 0.03 46 1006.1
20260505005018 16 90 9.7 17.7 0.03 0.03 0.03 48 1006.2
20260505004023 16 113 8.0 14.5 0.03 0.03 0.03 51 1006.3
20260505003018 16 113 11.3 19.3 0.03 0.03 0.03 53 1006.4
20260505002019 17 135 12.9 22.5 0.00 0.00 0.00 49 1006.6
20260505001018 18 158 4.8 11.3 0.00 0.00 0.00 41 1007.0
20260505000017 20 225 4.8 9.7 0.00 0.00 0.00 35 1007.1
20260504235017 21 225 4.8 11.3 0.00 0.00 0.00 30 1007.3
20260504234038 21 135 3.2 8.0 0.00 0.00 0.00 30 1007.3
20260504233018 21 158 4.8 11.3 0.00 0.00 0.00 30 1007.2
20260504232017 22 135 8.0 17.7 0.00 0.00 0.00 30 1007.4
20260504231058 22 315 4.8 14.5 0.00 0.00 0.00 29 1007.3
20260504230016 21 225 6.4 11.3 0.00 0.00 0.00 29 1006.9
20260504225039 22 315 14.5 22.5 0.00 0.00 0.00 27 1007.3
20260504224018 22 315 8.0 16.1 0.00 0.00 0.00 27 1006.9
20260504223016 22 293 3.2 8.0 0.00 0.00 0.00 26 1007.1
20260504222018 22 225 6.4 17.7 0.00 0.00 0.00 25 1007.2
20260504221018 22 225 8.0 16.1 0.00 0.00 0.00 27 1007.6
20260504220017 23 270 6.4 22.5 0.00 0.00 0.00 28 1008.1
20260504215016 24 203 8.0 16.1 0.00 0.00 0.00 23 1008.2
20260504214017 24 293 3.2 8.0 0.00 0.00 0.00 21 1008.3
20260504213017 24 158 6.4 14.5 0.00 0.00 0.00 24 1008.6
20260504212018 23 203 6.4 12.9 0.00 0.00 0.00 28 1008.3
20260504211023 23 225 9.7 19.3 0.00 0.00 0.00 27 1008.8
20260504210017 23 180 11.3 29.0 0.00 0.00 0.00 27 1008.8
20260504205038 23 225 6.4 16.1 0.00 0.00 0.00 25 1008.9
20260504204018 24 180 6.4 17.7 0.00 0.00 0.00 24 1008.6
20260504203018 23 225 6.4 12.9 0.00 0.00 0.00 25 1008.7
20260504202020 23 248 6.4 12.9 0.00 0.00 0.00 26 1008.8
20260504201017 23 248 6.4 14.5 0.00 0.00 0.00 27 1008.9
20260504200019 23 203 4.8 11.3 0.00 0.00 0.00 28 1009.0
20260504195038 23 158 1.6 11.3 0.00 0.00 0.00 28 1009.2
20260504194017 23 180 9.7 17.7 0.00 0.00 0.00 29 1008.6
20260504193022 23 180 6.4 16.1 0.00 0.00 0.00 29 1008.7
20260504192016 22 113 6.4 14.5 0.00 0.00 0.00 32 1008.6
20260504191016 22 315 6.4 16.1 0.00 0.00 0.00 29 1008.9
20260504190017 22 315 4.8 12.9 0.00 0.00 0.00 29 1009.1
20260504185018 22 270 3.2 9.7 0.00 0.00 0.00 28 1009.2
20260504184037 22 180 4.8 12.9 0.00 0.00 0.00 31 1009.5
20260504183018 22 158 6.4 14.5 0.00 0.00 0.00 31 1009.6
20260504182018 21 45 3.2 9.7 0.00 0.00 0.00 31 1009.3
20260504181016 21 158 8.0 17.7 0.00 0.00 0.00 30 1009.8
20260504180019 21 180 3.2 11.3 0.00 0.00 0.00 32 1010.0
20260504175017 21 203 11.3 17.7 0.00 0.00 0.00 31 1010.1
20260504174017 21 203 8.0 12.9 0.00 0.00 0.00 33 1009.8
20260504173016 20 225 3.2 9.7 0.00 0.00 0.00 33 1010.0
20260504172018 20 158 3.2 14.5 0.00 0.00 0.00 35 1010.1
20260504171016 20 180 8.0 11.3 0.00 0.00 0.00 34 1010.0
20260504151018 15 23 1.6 4.8 0.00 0.00 0.00 48 1010.1
20260504141039 13 0.0 0.0 0.00 0.00 0.00 53 1010.3
20260504081018 16 90 3.2 12.9 0.00 0.00 0.00 35 1012.4
20260504045016 16 68 6.4 9.7 0.00 0.00 0.00 25 1010.5
20260504044038 16 45 3.2 8.0 0.00 0.00 0.00 25 1010.0
20260504043017 16 45 1.6 8.0 0.00 0.00 0.00 25 1010.0
20260504042016 16 45 6.4 9.7 0.00 0.00 0.00 28 1010.0
20260504041018 16 45 6.4 9.7 0.00 0.00 0.00 28 1009.9
20260504040016 16 45 1.6 6.4 0.00 0.00 0.00 28 1009.9
20260504035020 16 0.0 1.6 0.00 0.00 0.00 25 1009.7
20260504034017 16 45 4.8 9.7 0.00 0.00 0.00 25 1008.9
20260504033017 17 45 3.2 9.7 0.00 0.00 0.00 23 1009.2
20260504032017 17 0.0 0.0 0.00 0.00 0.00 22 1009.1
20260504031018 17 68 3.2 9.7 0.00 0.00 0.00 23 1009.0
20260504030016 17 68 4.8 9.7 0.00 0.00 0.00 22 1008.9
20260504025018 17 68 6.4 11.3 0.00 0.00 0.00 22 1008.9
20260504024038 18 45 9.7 14.5 0.00 0.00 0.00 23 1008.9
20260504023017 18 23 14.5 16.1 0.00 0.00 0.00 22 1008.9
20260504022019 18 23 12.9 16.1 0.00 0.00 0.00 22 1008.9
20260504021016 18 45 8.0 11.3 0.00 0.00 0.00 24 1008.6
20260504020016 19 23 3.2 12.9 0.00 0.00 0.00 24 1009.1
20260504015017 20 0 3.2 6.4 0.00 0.00 0.00 24 1009.2
20260504014018 20 338 3.2 4.8 0.00 0.00 0.00 22 1009.1
20260504013016 21 338 1.6 4.8 0.00 0.00 0.00 21 1009.2
20260504012018 21 315 1.6 4.8 0.00 0.00 0.00 19 1009.5